Location: ??????????
(31.2156°N, 29.9553°E)
Time: 08:45:38
(UTC+00:00)

ATLAS CENTAUR R/B - Pass Details

Date: 03 March 2021
Orbit: 475 x 670 km, 64.7° (Epoch: 30 March)

Event Time Altitude Azimuth Distance (km) Brightness Sun altitude
Rises 16:38:20 0° 213° (SSW) 2,547 5.3 -9.0°
Reaches altitude 10° 16:40:30 10° 217° (SW) 1,653 4.3 -9.5°
Maximum altitude 16:44:08 62° 298° (WNW) 537 1.5 -10.2°
Drops below altitude 10° 16:47:44 10° 21° (NNE) 1,642 3.5 -11.0°
Sets 16:49:53 0° 24° (NNE) 2,528 4.5 -11.5°
